Location: O'Brien
(30.0517°N, 82.9900°W)
Time: 13:31:53
(UTC-04:00)

Envisat - Visible Passes

Search period start: 19 March 2019 00:00
Search period end: 29 March 2019 00:00
Orbit: 764 x 766 km, 98.2° (Epoch: 19 March)

Date Brightness Start Highest point End Pass type
(mag) Time Alt. Az. Time Alt. Az. Time Alt. Az.
19 Mar 5.9 21:28:57 10° SW 21:31:59 16° W 21:35:01 10° WNW visible
20 Mar 4.4 20:50:20 10° SSW 20:55:03 39° W 20:59:48 10° NNW visible
21 Mar 3.0 20:13:14 10° SSE 20:18:18 82° ENE 20:23:23 10° N visible
22 Mar 5.5 21:16:56 10° SW 21:20:42 21° W 21:24:28 10° NW visible
23 Mar 3.9 20:38:54 10° S 20:43:49 52° W 20:48:46 10° NNW visible
24 Mar 3.0 20:02:07 10° SSE 20:07:07 63° ENE 20:12:07 10° N visible
24 Mar 6.2 21:45:39 10° WSW 21:46:25 10° W 21:47:12 10° W visible
25 Mar 5.1 21:05:10 10° SSW 21:09:26 27° W 21:13:42 10° NW visible
26 Mar 3.4 20:27:34 10° S 20:32:36 69° W 20:37:39 10° NNW visible
27 Mar 5.9 21:32:29 10° SW 21:35:07 14° W 21:37:45 10° WNW visible
28 Mar 4.6 20:53:33 10° SSW 20:58:10 35° W 21:02:48 10° NNW visible
